Regional Weather Roundup
Issued by NWS

Home | Current Version | Previous Version | Text Only | Print | Product List | Glossary Off
Versions: 1 2 3 4 5 6 7 8 9 10 11 12 13 14 15 16 17 18 19 20 21 22 23 24 25 26 27 28 29 30 31 32 33 34 35 36 37 38 39 40 41 42 43 44 45 46 47 48 49 50

000
ASUS45 KBOU 221607
RWRCO

WEATHER ROUNDUP FOR COLORADO
NATIONAL WEATHER SERVICE DENVER/BOULDER CO
1000 AM MDT THU JUN 22 2017

NOTE: "FAIR" INDICATES FEW OR NO CLOUDS BELOW 12000 FEET WITH NO
SIGNIFICANT WEATHER AND/OR OBSTRUCTIONS TO VISIBILITY.

COZ001>005-013-030-031-221700-
...NORTHWEST COLORADO...

CITY           SKY/WX    TMP DP  RH WIND       PRES   REMARKS
CRAIG          FAIR      75  46  35 CALM      30.05S
HAYDEN         FAIR      72  43  35 NE3       30.07S
MEEKER         FAIR      73  44  35 SE5       30.05F
RABBIT EARS PA FAIR      59  36  41 NW5       30.36S
STEAMBOAT SPGS FAIR      68  45  44 CALM      30.09S
WALDEN         FAIR      73  39  29 SW10G18   30.17S
$$

COZ006>008-011-221700-
...WEST CENTRAL VALLEYS...

CITY           SKY/WX    TMP DP  RH WIND       PRES   REMARKS
GRAND JUNCTION FAIR      80  44  27 S9        29.94S
MONTROSE       FAIR      78  41  26 N9        30.02S
EAGLE          SUNNY     70  39  32 CALM      30.12F
RIFLE          FAIR      76  40  27 NE7       30.01F
DELTA          FAIR      84  35  17 CALM      29.98F
NUCLA          NOT AVBL
$$

COZ017>023-064>068-221700-
...SOUTHWEST COLORADO...

CITY           SKY/WX    TMP DP  RH WIND       PRES   REMARKS
DURANGO        FAIR      81  34  18 N6        30.12F
CORTEZ         FAIR      82  40  22 SE9       30.04F
PAGOSA SPRINGS FAIR      77  31  18 S5        30.22S
TELLURIDE      FAIR      69  36  29 CALM      30.34S
WOLF CREEK PAS FAIR      59  32  36 SW7       30.60S
$$

COZ009-010-012-014-032>034-037-058>063-221700-
...CENTRAL COLORADO...

CITY           SKY/WX    TMP DP  RH WIND       PRES   REMARKS
ASPEN          FAIR      68  42  38 VRB7      30.15S
BUENA VISTA    FAIR      73  31  21 SE6       30.18F
COPPER MTN     FAIR      61  25  25 W7G17     30.50F
BERTHOUD PASS  FAIR      52  39  62 W21       30.52S
COTTONWOOD PAS FAIR      73  30  20 E3        30.33F
GUNNISON       FAIR      64  39  39 N7        30.22F
KREMMLING      NOT AVBL
LEADVILLE      FAIR      64  36  35 W5        30.31F
MONARCH PASS     N/A     59  30  33 W20G25    30.62F
SALIDA         FAIR      73  35  24 CALM      30.22F
SUNLIGHT       FAIR      63  32  31 SW9G18    30.43S
WILKERSON PASS FAIR      59  28  31 SW10G20   30.47S
$$

COZ069>075-221700-
...SAN LUIS VALLEY/SANGRE DE CRISTO MOUNTAINS...

CITY           SKY/WX    TMP DP  RH WIND       PRES   REMARKS
ALAMOSA        FAIR      71  40  32 NE12      30.21S
DEL NORTE      FAIR      74  39  27 SE8       30.23F
LA VETA PASS   FAIR      64  37  36 MISG      30.51R
SAGUACHE       FAIR      68  37  32 SE12      30.22F
$$

COZ035-036-038>040-221700-
...NORTHERN COLORADO FRONT RANGE...

CITY           SKY/WX    TMP DP  RH WIND       PRES   REMARKS
DENVER INTL AP PTSUNNY   90  36  14 NW5       29.92F
DMNS CITY PARK   N/A     85  44  23 S3        29.91F
AURORA         PTSUNNY   85  41  21 CALM      29.96S
FRONT RANGE AP FAIR      90  34  13 NW3       29.94F
ERIE MUNI ARPT FAIR      87  35  16 CALM      29.90F
BOULDER MUN AP FAIR      88  39  18 E3        29.90F
CENTENNIAL     FAIR      84  35  17 CALM      29.96F
BROOMFIELD     FAIR      88  32  13 CALM      29.95F
FORT COLLINS   FAIR      85  48  27 E8        29.91R
LONGMONT       FAIR      90  42  18 E6        29.90F
$$

COZ041-046-047-076>085-087-088-221700-
...PIKES PEAK/PALMER DIVIDE AND SOUTHERN FOOTHILLS...

CITY           SKY/WX    TMP DP  RH WIND       PRES   REMARKS
COLO. SPRINGS  PTSUNNY   82  33  17 VRB5      30.01S
A. F. ACADEMY  FAIR      85  40  20 S8        30.02F
SCHRIEVER AFB  NOT AVBL
CHEYENNE MTN   NOT AVBL
ELLICOTT       FAIR     N/A N/A N/A W6        29.99S
FALCON           N/A     88  31  13 SW13G18   30.07S
FORT CARSON    FAIR      78  43  28 SE5       29.98F HAZE
LIMON          FAIR      92  36  14 VRB3      29.91F
MONUMENT HILL  FAIR      82  34  17 SW6       30.09S
CANON CITY     SUNNY     84  39  20 W10       29.95F
WALSENBURG     FAIR      88  37  16 W15G22    30.01F
TRINIDAD       FAIR      82  49  31 W15       29.98F
$$

COZ042>045-048>051-090-091-221700-
...NORTHEAST COLORADO...

CITY           SKY/WX    TMP DP  RH WIND       PRES   REMARKS
GREELEY ARPT   FAIR      85  49  28 NE16G25   29.90
AKRON          FAIR      84  45  25 N21G31    29.89R
BURLINGTON     FAIR      93  47  20 NW18      29.81F
WRAY           FAIR      91  39  16 N24       29.79R
YUMA           FAIR      86  45  23 N16G23    29.83R
STERLING       FAIR      81  54  39 N17G31    29.84R
HOLYOKE        NOT AVBL
FORT MORGAN    FAIR      83  46  26 N23G30    29.89R
$$

COZ086-089-092>099-221700-
...SOUTHEAST COLORADO...

CITY           SKY/WX    TMP DP  RH WIND       PRES   REMARKS
PUEBLO         FAIR      80  48  32 SW6       29.89F
LA JUNTA       FAIR      82  50  32 W16       29.84F
LAMAR          FAIR      90  55  30 W15       29.76F
SPRINGFIELD      N/A     90  56  31 NW9       29.83F
$$



USA.gov is the U.S. government's official web portal to all federal, state and local government web resources and services.